Wind_Speed
22 22 22 22 23 24 24 24 25 27 27 27 27 28 28 29 30 30 31 31 32 32 32 32 32 33 34 34 35 35 36 37 37 37 37 37 37 37 37 37 37 37 38 39 40 41 42 43 44 45 46 47 47 45 44 45 45 43 42 42 44 46 47
26 25 25 25 26 27 28 28 29 29 29 29 29 30 31 31 32 32 32 32 32 33 33 33 34 35 35 36 37 38 38 39 39 39 39 38 38 38 38 38 39 39 40 41 42 43 44 45 46 47 47 48 47 45 45 44 42 41 43 45 48 50 49
29 28 28 28 29 30 31 31 32 31 31 31 31 32 32 33 33 33 33 34 34 34 34 35 36 36 37 38 39 40 40 41 41 41 40 39 39 39 40 41 42 42 43 44 45 46 46 46 48 48 46 45 44 44 44 41 40 43 47 49 52 52 49
31 31 31 31 31 32 33 33 33 33 32 32 33 33 34 34 35 35 35 35 36 36 36 37 38 38 39 40 41 42 42 42 42 42 42 41 41 42 42 43 45 45 46 47 48 48 47 48 50 48 43 41 41 42 43 40 41 46 49 51 54 52 50
34 34 34 34 33 33 34 35 35 35 35 35 35 36 36 36 36 36 37 37 38 38 38 39 40 40 41 42 42 43 43 43 43 43 43 43 44 45 45 47 47 48 49 48 47 48 49 50 50 46 41 41 43 44 45 43 44 48 51 54 56 53 51
36 36 36 36 35 35 35 36 37 38 38 38 38 38 39 39 39 39 39 39 39 40 40 40 41 41 42 43 44 44 44 44 44 44 44 45 46 47 47 49 50 50 50 47 45 48 50 50 48 44 43 45 47 47 47 47 50 52 55 57 57 53 51
38 38 38 38 37 37 38 39 39 40 40 40 41 41 42 42 42 41 41 41 41 41 41 42 42 42 43 44 45 45 45 44 45 46 46 46 48 49 50 51 51 51 50 47 46 48 49 48 45 44 45 47 49 50 51 52 55 56 57 57 55 52 50
41 40 40 40 40 39 40 41 42 42 42 42 43 44 44 44 44 44 43 42 42 42 42 42 43 43 44 45 45 46 45 45 46 47 48 50 51 52 52 51 51 51 50 48 49 51 51 47 44 44 46 48 50 53 54 56 57 57 56 55 53 51 50
43 43 43 43 42 42 42 43 44 44 44 44 45 45 46 46 46 45 45 44 43 43 43 43 44 44 45 45 46 47 47 47 48 49 51 53 52 51 51 51 53 54 51 49 52 56 56 50 44 46 48 50 52 52 53 55 56 55 55 53 52 52 52
46 46 45 45 45 44 45 45 46 46 46 46 47 47 48 48 47 47 46 46 44 44 44 44 45 46 46 47 47 47 48 48 50 51 53 53 53 54 53 53 55 55 51 51 57 60 57 51 47 48 49 51 52 50 50 52 53 54 54 52 52 53 54
50 49 47 47 47 47 48 48 48 48 48 48 48 49 49 49 49 48 48 47 46 45 45 45 46 48 48 48 48 49 49 49 50 50 51 52 54 55 53 53 55 54 52 56 60 57 52 49 47 47 48 51 53 50 49 50 52 54 55 54 54 54 55
52 50 49 49 49 49 50 50 50 50 50 51 51 51 51 51 50 50 50 49 48 47 47 47 48 50 50 50 50 50 50 50 51 51 50 51 53 53 52 53 55 54 55 59 59 53 49 49 47 47 49 52 53 50 49 50 53 56 57 57 56 56 59
52 51 50 51 51 51 51 51 51 51 51 52 52 53 53 52 52 52 52 51 50 50 49 49 50 51 52 52 52 52 51 51 51 49 48 50 51 51 52 54 54 54 56 56 54 51 50 50 50 50 52 52 50 47 47 50 53 56 59 60 59 61 64
52 51 51 52 53 53 52 52 52 52 52 53 54 54 54 55 55 55 54 54 53 52 51 51 52 53 54 54 53 52 51 51 49 45 44 47 50 52 54 55 54 55 55 54 53 52 51 53 54 53 51 50 47 47 49 52 54 56 59 60 60 64 68
53 52 52 54 55 55 54 53 53 54 54 55 55 56 56 57 58 57 57 56 55 54 53 53 54 55 55 55 53 51 50 48 46 42 39 40 45 52 55 54 53 54 55 55 55 54 54 57 56 53 51 49 48 50 53 55 56 58 60 61 63 67 70
54 54 54 55 56 56 56 55 55 56 56 57 58 58 59 59 60 59 59 58 57 57 56 56 56 57 56 56 53 51 50 47 44 39 33 31 37 48 53 54 55 57 58 57 56 56 58 59 56 53 52 51 50 52 54 55 56 58 61 63 66 69 70
56 56 56 57 57 57 57 56 55 56 57 58 60 60 61 62 62 62 62 61 60 60 59 58 58 58 57 56 54 52 51 48 44 39 32 28 31 40 47 53 58 60 59 57 55 56 59 59 54 50 50 50 50 51 53 54 56 60 63 65 67 69 70
57 57 58 58 58 58 57 56 56 56 58 60 61 62 63 64 65 66 66 65 64 63 62 61 60 59 58 56 54 52 51 49 46 41 35 30 31 39 48 56 61 62 60 58 57 59 61 58 52 48 48 51 52 52 53 53 57 63 66 66 68 70 71
58 58 59 59 60 58 57 56 56 56 58 61 63 63 64 65 67 68 69 69 68 67 65 64 62 60 58 56 53 52 50 49 48 45 41 38 39 45 51 55 59 61 61 60 61 63 63 60 56 53 52 54 54 53 55 57 61 66 68 68 70 72 72
59 60 61 62 62 60 58 57 57 57 60 63 64 64 65 67 69 69 70 70 70 69 68 66 64 61 58 56 54 52 50 50 51 50 49 47 47 49 51 53 56 57 58 60 61 63 63 63 61 56 53 55 56 57 60 62 64 66 67 67 69 70 72
62 62 63 64 63 60 59 58 59 60 63 65 65 65 67 69 70 70 70 70 70 70 68 67 65 62 59 57 55 54 53 53 54 54 55 54 54 54 54 54 55 57 57 58 58 59 59 59 57 52 50 54 58 61 64 66 65 66 66 66 68 71 74
64 64 66 65 63 61 61 62 62 63 64 65 66 68 70 71 71 70 70 70 69 68 67 65 64 62 60 59 58 56 56 57 57 58 59 60 60 59 57 56 56 57 58 57 55 55 54 52 52 53 54 57 61 64 68 71 71 70 69 68 70 75 79
67 67 68 66 64 64 65 65 65 65 66 67 69 71 72 71 71 70 70 69 68 67 65 64 63 62 61 61 61 60 59 60 60 61 62 63 63 61 59 58 57 57 57 55 51 49 49 49 52 56 59 61 64 68 71 74 76 75 73 73 76 81 86
70 70 69 68 67 67 68 68 67 67 68 69 70 72 73 71 71 70 69 68 67 65 64 63 63 62 63 64 64 64 63 63 63 64 65 65 64 63 61 59 58 56 53 49 47 48 50 51 54 60 66 68 70 72 73 74 76 76 78 80 82 86 89
72 72 71 70 69 69 69 70 70 69 69 70 72 73 72 71 70 69 68 67 66 65 65 64 63 64 65 67 68 67 66 66 66 67 67 67 66 64 62 60 58 55 52 51 53 55 55 56 58 62 66 68 71 74 74 75 75 77 78 80 82 85 87
73 73 72 71 71 71 71 71 71 71 71 72 72 72 72 71 70 68 67 66 66 65 65 65 65 67 68 70 71 71 69 69 69 68 68 68 66 64 63 60 57 54 52 53 57 59 60 61 64 66 68 70 72 73 75 77 78 79 80 81 83 86 89
73 73 73 73 72 71 71 71 72 72 72 72 72 72 71 70 69 68 67 66 66 66 66 67 68 70 71 73 73 73 72 72 71 70 69 68 67 67 64 59 55 52 51 52 56 61 64 66 68 69 71 73 75 76 77 78 80 81 83 83 83 85 87
73 74 74 73 72 72 72 72 72 72 71 72 72 72 71 70 69 68 67 67 67 67 69 70 71 72 73 74 74 75 74 73 71 70 70 70 69 66 61 57 54 53 53 55 57 61 65 69 71 73 74 75 76 78 79 80 81 83 84 83 84 85 87
73 74 74 74 73 73 72 72 72 71 71 71 71 71 70 70 69 68 68 68 69 70 71 71 72 73 74 75 76 75 73 72 71 72 72 70 66 62 60 60 60 58 57 58 59 60 62 66 70 74 76 78 79 79 80 81 82 81 81 82 84 86 88
74 75 75 75 75 73 72 70 69 66 67 70 71 70 70 71 71 71 70 71 71 71 72 73 74 74 75 75 74 73 71 72 72 72 70 66 63 63 64 65 64 63 62 61 61 60 60 61 65 70 74 77 79 80 80 79 78 78 78 80 82 84 86
75 76 76 75 75 73 71 70 67 63 63 66 69 69 70 71 72 73 72 71 72 72 73 74 74 74 73 73 72 72 72 73 73 72 69 67 66 66 67 66 66 66 66 65 63 60 56 55 57 62 66 70 74 76 77 78 78 78 79 80 81 83 84
75 75 75 74 74 72 70 69 68 67 67 68 70 72 73 73 73 73 72 72 73 74 73 73 72 72 71 71 72 73 74 74 73 72 70 68 68 68 68 67 67 67 65 64 63 61 58 55 55 57 60 62 65 67 69 72 74 76 78 79 80 81 81
74 74 74 73 73 71 70 69 70 71 71 72 73 75 74 73 73 73 72 73 74 74 73 72 72 72 72 73 74 74 73 72 71 71 70 68 68 68 67 67 67 66 65 65 65 64 63 62 61 60 60 61 63 64 66 68 70 73 76 77 78 80 82
73 73 73 73 73 72 72 72 73 72 72 74 75 76 75 74 74 73 73 73 75 75 74 74 74 74 75 76 76 75 73 71 71 70 69 68 68 68 68 67 67 67 67 68 68 67 66 65 64 64 65 67 68 70 70 72 73 76 78 81 83 85 88
73 73 74 74 74 74 74 74 74 74 74 75 76 76 76 75 75 74 74 74 75 75 75 75 76 76 77 78 78 76 74 73 71 70 69 70 70 69 68 68 68 68 69 70 70 69 68 69 70 70 71 73 74 75 76 77 78 80 82 84 86 88 90
73 74 74 74 74 75 75 75 76 76 76 77 77 77 77 76 76 75 75 74 74 75 76 77 78 79 79 79 78 76 74 73 71 70 70 70 69 69 69 70 70 70 69 69 69 70 70 71 72 73 74 75 76 76 77 78 79 80 82 84 85 87 89
74 74 74 75 75 76 77 78 78 78 78 78 78 77 77 76 75 75 74 74 74 76 77 78 79 80 80 79 78 77 75 73 72 71 70 69 69 69 71 72 73 72 71 71 70 70 71 72 73 74 75 76 77 77 78 79 80 81 83 84 86 88 91
75 75 76 76 77 77 78 80 80 79 79 78 77 77 76 75 74 74 74 74 75 77 78 78 79 80 80 79 78 77 76 75 73 72 70 70 71 72 74 76 76 76 75 74 73 73 74 75 76 77 78 79 80 81 81 81 82 83 84 87 90 92 94
Wind_Direction
251 252 255 258 262 264 265 267 270 274 278 282 285 288 290 293 295 297 299 301 303 305 307 309 310 311 312 312 314 315 316 317 318 318 318 318 318 319 320 321 322 324 324 324 324 324 324 324 324 324 323 321 320 319 320 321 322 322 322 321 321 322 322
255 256 259 261 264 267 269 270 271 273 277 281 285 288 290 292 294 296 298 300 302 303 305 307 309 310 310 312 313 314 315 316 316 316 317 317 317 318 319 320 320 321 322 322 322 322 322 323 323 322 321 320 319 318 319 322 323 324 323 323 323 322 321
258 260 262 263 266 268 270 272 273 276 279 283 286 289 291 292 294 295 297 299 300 302 304 306 307 308 309 311 312 313 314 314 315 315 316 316 317 318 319 319 319 319 319 320 319 319 319 320 322 321 320 319 318 317 318 319 321 323 323 324 325 324 322
261 262 263 264 266 269 272 275 277 280 283 285 287 289 290 292 294 296 297 299 300 301 303 305 306 307 309 310 311 311 312 313 314 315 315 316 316 317 318 317 317 317 318 318 319 319 317 318 321 320 318 319 318 317 315 313 314 319 322 323 324 323 323
264 264 265 266 268 271 274 277 280 283 284 286 287 289 290 292 293 295 297 298 299 301 302 304 305 306 308 309 310 310 310 312 313 314 315 316 316 316 316 316 316 316 317 319 322 323 321 320 320 319 316 317 317 315 313 309 310 315 318 320 321 321 321
265 266 267 268 270 273 275 278 280 283 284 286 287 289 290 292 293 294 295 297 298 300 302 303 304 306 308 309 309 308 309 311 313 314 314 315 315 315 314 314 315 316 317 319 323 326 325 324 321 318 316 316 315 313 311 309 309 312 313 315 318 319 319
265 267 269 270 272 274 276 277 279 281 283 285 287 289 290 291 293 294 295 297 298 299 301 302 304 305 306 307 307 307 309 310 312 313 312 313 313 312 312 312 315 317 318 319 321 325 327 324 320 318 317 315 314 311 309 308 308 309 310 314 318 318 317
265 267 269 270 272 273 275 276 277 279 281 284 286 287 289 290 292 293 294 295 297 298 299 301 302 304 304 304 305 306 308 309 311 311 310 311 311 311 312 312 313 316 319 319 319 322 324 321 318 317 316 315 314 311 307 306 306 309 312 316 318 318 316
264 266 267 269 270 272 273 275 276 278 280 282 284 285 287 288 289 291 292 293 295 296 297 299 300 301 301 302 304 306 307 308 309 310 310 310 310 312 313 312 313 315 317 318 317 318 321 319 314 313 312 311 312 311 307 305 306 311 315 317 317 317 316
262 264 266 268 269 271 272 274 275 277 279 281 282 283 284 286 287 288 289 291 293 294 295 296 298 298 299 301 304 306 306 307 309 311 310 309 311 314 314 314 315 314 314 313 313 314 318 317 313 309 308 310 313 313 309 305 308 314 317 317 316 315 315
261 263 265 266 268 270 272 273 275 277 278 279 280 282 283 284 285 286 288 290 291 293 293 295 297 298 299 300 302 303 304 306 308 309 308 308 312 314 313 313 313 311 308 307 309 312 315 316 314 309 309 313 314 314 311 308 310 315 318 317 315 313 313
261 263 265 266 268 269 270 272 274 276 278 279 280 281 283 284 285 286 288 289 291 292 294 295 296 297 298 299 300 301 303 305 306 308 309 312 315 314 311 310 309 305 303 304 308 313 314 314 314 310 310 313 313 313 312 309 311 314 316 316 313 310 312
261 263 264 266 267 268 270 272 274 276 277 279 280 281 283 284 285 286 288 289 290 291 293 294 295 295 296 297 298 301 303 304 306 310 315 317 317 314 312 311 306 302 301 303 308 312 311 311 312 310 309 310 310 311 312 312 313 314 314 313 309 308 311
260 262 264 265 267 269 270 272 274 276 277 279 280 281 282 283 284 286 287 288 289 290 291 293 293 293 295 296 298 301 303 304 308 313 320 322 318 314 311 309 305 303 303 304 306 306 307 308 308 307 307 307 308 310 313 314 314 312 309 309 306 307 309
259 261 263 265 267 269 271 273 274 276 277 278 279 280 281 282 283 285 286 287 288 289 290 291 291 292 294 295 298 301 303 305 309 315 325 328 318 308 305 304 304 303 300 299 300 301 303 305 304 303 305 306 306 308 311 313 311 307 305 305 305 306 308
259 261 263 265 267 268 270 272 274 275 277 278 279 280 280 281 283 284 285 286 287 288 289 290 291 293 294 296 300 302 303 305 309 314 325 328 312 301 299 298 297 294 293 294 297 299 300 301 301 300 303 306 307 306 308 309 306 303 302 302 304 305 305
259 261 263 264 266 267 269 271 273 274 276 278 279 280 281 282 283 284 285 285 286 288 289 291 292 294 296 298 301 303 303 304 307 310 316 317 307 297 291 286 284 284 288 292 294 294 296 297 299 300 302 305 308 308 307 304 300 298 298 299 301 301 300
259 260 262 263 265 266 268 270 272 274 276 277 278 279 281 283 285 285 286 287 288 289 290 292 294 295 296 298 300 301 301 301 303 305 305 302 294 283 274 271 274 279 285 289 290 291 293 296 299 302 305 308 310 309 306 299 293 293 293 293 295 296 296
260 261 262 263 264 266 267 269 271 273 275 276 277 279 281 283 284 285 287 289 290 291 292 293 294 295 296 297 298 297 298 299 300 300 298 293 286 279 274 273 277 282 286 289 289 290 291 292 295 300 305 309 309 305 298 291 287 286 287 288 290 292 293
262 262 263 263 264 266 267 269 271 272 273 274 276 278 280 281 282 284 286 287 289 290 291 292 293 294 295 295 295 294 295 296 297 296 295 293 290 288 286 285 286 287 288 288 288 288 287 287 291 297 302 303 300 293 287 283 281 282 283 286 288 290 291
262 262 262 263 265 267 268 269 270 271 271 273 276 277 278 279 280 282 284 286 287 288 290 291 292 293 293 293 293 293 294 295 296 296 296 295 294 292 291 290 289 289 288 288 286 285 283 284 288 291 290 288 286 282 279 277 277 278 281 283 285 286 288
261 262 263 264 266 268 268 269 269 270 272 274 275 276 277 278 280 282 283 284 286 287 288 289 290 291 292 292 292 293 294 295 296 296 296 295 294 293 292 292 292 290 288 287 284 281 280 281 281 279 278 278 279 278 277 277 277 277 279 281 283 285 287
261 262 263 265 267 268 268 269 270 272 273 274 275 276 277 278 279 281 282 284 285 286 286 287 288 289 290 291 291 293 294 295 296 295 295 294 294 294 294 293 292 289 289 289 286 280 275 273 273 274 276 277 276 275 275 276 276 277 278 280 283 285 287
261 262 264 265 267 268 269 270 271 272 273 274 275 275 276 278 279 280 282 283 284 284 284 285 287 288 289 290 291 292 294 295 295 294 293 293 294 295 295 294 292 289 287 283 278 271 267 265 269 274 276 276 274 272 271 271 274 276 278 279 282 284 285
261 263 264 265 266 267 269 270 271 271 272 273 273 274 276 277 279 280 281 282 282 283 284 285 287 288 289 290 291 292 293 294 294 293 293 294 295 295 294 293 291 288 281 272 266 264 262 261 264 268 270 271 271 270 268 269 273 277 279 280 281 283 285
261 263 264 265 266 267 268 269 270 270 271 271 272 274 275 277 278 279 280 280 281 282 283 285 286 287 288 290 291 292 293 293 294 294 295 295 295 295 294 292 290 286 277 267 264 264 264 263 263 263 264 265 267 268 269 271 275 279 280 281 281 283 285
260 262 263 263 264 265 266 267 268 269 270 271 272 274 275 276 277 278 278 279 280 281 283 284 285 287 288 290 291 292 293 294 295 295 295 295 295 294 293 291 289 286 277 269 266 266 265 265 265 264 263 263 265 267 270 273 277 281 283 284 285 286 288
258 260 261 262 263 264 264 265 266 268 269 271 273 274 275 275 276 276 277 278 279 280 282 284 285 287 288 289 291 292 294 296 296 296 296 296 295 294 291 290 290 288 282 276 274 271 268 266 265 264 264 264 265 267 269 273 277 280 284 286 286 287 287
256 258 259 259 260 261 263 264 266 268 269 271 272 273 273 274 274 275 276 277 279 281 283 285 286 288 289 290 292 294 295 297 297 297 296 296 295 293 291 290 291 289 285 282 280 278 274 270 267 265 264 265 266 267 269 272 274 277 280 281 282 283 284
254 256 257 258 259 260 262 264 266 268 269 269 270 270 271 273 274 275 276 278 281 283 285 286 288 289 291 292 293 295 296 297 296 296 295 295 294 294 293 294 295 294 292 291 289 286 281 276 271 269 268 268 269 270 272 274 276 277 279 281 282 284 285
253 255 257 258 260 262 263 264 265 265 266 267 269 270 271 273 275 276 278 281 283 285 287 289 290 291 292 293 294 295 296 296 296 296 296 296 296 296 297 298 299 298 298 297 296 293 288 282 276 274 273 273 273 275 277 278 279 280 282 284 285 286 287
254 256 258 259 261 263 264 264 265 264 263 264 267 269 271 274 276 278 281 283 285 287 289 290 291 292 293 293 293 294 295 296 296 297 297 298 298 298 299 299 299 298 298 297 297 295 292 288 284 281 279 278 278 279 280 281 283 284 285 286 287 287 287
255 257 258 260 261 262 263 263 263 264 264 265 267 269 272 275 277 280 283 284 286 288 289 289 290 291 291 291 292 293 294 294 294 295 295 296 296 296 296 297 297 298 298 297 297 296 294 293 292 290 289 288 288 288 288 289 289 289 289 289 289 289 290
255 256 258 259 260 261 262 263 264 265 266 267 269 271 274 276 279 281 283 285 287 288 288 288 289 289 289 290 291 292 292 292 292 293 293 293 294 294 295 297 299 299 298 296 296 295 293 291 291 292 292 293 294 294 293 292 292 291 291 291 291 291 292
255 256 257 259 260 261 262 263 264 265 267 269 271 273 276 278 280 282 284 285 285 285 286 287 287 287 287 289 290 290 291 292 292 292 292 292 292 293 295 297 299 299 298 296 294 293 291 289 289 290 291 291 292 292 292 291 291 291 291 291 291 291 292
255 256 257 258 260 261 263 264 265 266 268 269 272 274 277 279 282 283 284 285 284 284 285 286 286 286 287 288 289 289 290 291 291 291 291 290 291 292 294 297 298 298 297 295 293 291 290 289 289 289 290 291 291 292 292 293 293 293 293 293 293 294 295
254 256 257 258 260 262 263 264 265 267 269 271 273 276 278 280 282 283 284 284 284 285 285 285 285 285 286 287 287 288 290 291 291 291 291 291 292 294 296 298 299 299 298 297 294 293 292 292 292 293 294 294 294 294 294 294 294 294 294 295 296 298 299
254 256 257 259 260 261 263 264 266 268 271 273 275 277 279 281 282 282 283 284 284 284 284 284 284 285 286 286 288 289 291 292 293 292 292 293 294 296 298 299 300 301 301 300 298 297 296 296 296 296 295 295 294 294 294 294 294 295 296 298 299 300 300
Height
10962 10962 10963 10963 10963 10964 10964 10965 10965 10964 10964 10963 10964 10963 10963 10962 10962 10961 10961 10960 10959 10958 10958 10957 10956 10955 10954 10953 10952 10951 10949 10948 10947 10945 10944 10943 10941 10938 10936 10934 10932 10929 10927 10925 10923 10920 10918 10916 10914 10912 10909 10907 10905 10903 10901 10899 10896 10894 10892 10890 10888 10885 10883
10959 10959 10959 10960 10960 10960 10961 10961 10962 10961 10961 10961 10961 10960 10960 10959 10959 10958 10958 10957 10956 10955 10955 10954 10953 10952 10951 10949 10948 10947 10946 10944 10943 10942 10940 10939 10937 10935 10933 10930 10928 10927 10925 10922 10920 10917 10915 10913 10910 10908 10905 10903 10901 10899 10897 10895 10893 10891 10889 10887 10884 10882 10879
10955 10956 10956 10956 10956 10957 10957 10957 10958 10958 10958 10958 10957 10957 10956 10956 10955 10955 10954 10953 10953 10952 10952 10951 10950 10948 10947 10946 10944 10943 10942 10940 10939 10937 10936 10935 10933 10931 10929 10926 10924 10922 10921 10919 10917 10914 10912 10909 10907 10904 10902 10899 10896 10895 10893 10891 10889 10887 10885 10883 10880 10878 10875
10952 10952 10952 10953 10953 10953 10953 10953 10953 10953 10953 10953 10953 10953 10953 10952 10952 10951 10950 10950 10949 10949 10948 10947 10946 10945 10944 10942 10941 10939 10937 10936 10934 10933 10931 10929 10928 10926 10924 10922 10919 10917 10916 10914 10912 10910 10908 10905 10903 10900 10898 10895 10893 10891 10889 10887 10884 10882 10879 10877 10875 10873 10870
10947 10947 10948 10948 10949 10949 10949 10948 10948 10948 10949 10949 10949 10949 10949 10948 10948 10947 10947 10946 10945 10945 10944 10943 10942 10941 10940 10939 10937 10935 10933 10932 10930 10928 10926 10924 10922 10920 10918 10915 10914 10912 10911 10909 10907 10905 10903 10900 10898 10895 10893 10891 10888 10886 10884 10882 10879 10876 10873 10871 10869 10867 10864
10941 10942 10943 10944 10944 10945 10945 10944 10944 10944 10944 10944 10945 10944 10944 10944 10944 10943 10943 10943 10942 10941 10940 10940 10939 10937 10936 10934 10932 10931 10929 10928 10925 10923 10921 10919 10917 10914 10912 10910 10908 10906 10905 10903 10902 10899 10897 10894 10892 10889 10887 10885 10883 10881 10879 10876 10874 10871 10868 10865 10863 10860 10858
10936 10937 10938 10939 10940 10940 10941 10940 10940 10940 10940 10940 10940 10939 10939 10939 10939 10939 10939 10938 10938 10937 10937 10936 10935 10933 10932 10930 10928 10926 10925 10923 10921 10918 10916 10914 10912 10909 10907 10904 10902 10900 10898 10897 10896 10894 10891 10888 10886 10884 10882 10880 10878 10875 10873 10870 10867 10865 10862 10859 10856 10853 10851
10931 10932 10933 10934 10935 10936 10936 10935 10936 10936 10936 10936 10936 10935 10934 10934 10934 10934 10934 10934 10934 10933 10933 10931 10930 10929 10928 10926 10923 10922 10920 10918 10916 10914 10911 10909 10907 10904 10901 10899 10896 10894 10893 10891 10890 10888 10887 10884 10881 10880 10877 10875 10873 10870 10866 10863 10861 10858 10855 10852 10849 10846 10844
10926 10927 10928 10929 10930 10931 10931 10931 10931 10931 10932 10932 10931 10930 10930 10929 10929 10930 10930 10930 10930 10929 10929 10927 10926 10925 10923 10921 10919 10917 10916 10914 10911 10909 10906 10903 10901 10899 10897 10894 10891 10889 10888 10887 10885 10883 10882 10879 10877 10875 10873 10870 10867 10864 10860 10857 10854 10852 10848 10845 10842 10840 10837
10920 10922 10923 10924 10925 10926 10926 10926 10926 10926 10927 10927 10926 10925 10925 10925 10925 10925 10925 10925 10926 10926 10925 10923 10922 10920 10918 10916 10915 10913 10912 10910 10909 10905 10899 10896 10895 10894 10892 10890 10887 10885 10884 10881 10879 10878 10876 10873 10871 10869 10866 10864 10861 10857 10853 10850 10848 10845 10842 10839 10836 10833 10830
10915 10917 10919 10919 10920 10921 10921 10921 10922 10922 10922 10922 10921 10921 10920 10920 10920 10920 10920 10921 10921 10921 10920 10919 10917 10915 10913 10912 10910 10909 10908 10907 10906 10902 10896 10893 10892 10891 10889 10886 10883 10881 10879 10875 10873 10873 10871 10867 10865 10862 10860 10857 10854 10851 10848 10845 10842 10839 10835 10832 10830 10827 10824
10910 10912 10914 10915 10915 10916 10916 10916 10917 10917 10916 10916 10916 10915 10915 10915 10915 10915 10915 10915 10915 10915 10914 10913 10912 10910 10908 10907 10906 10905 10905 10904 10902 10897 10893 10892 10891 10889 10885 10882 10878 10875 10872 10868 10866 10866 10864 10861 10859 10857 10854 10851 10848 10845 10842 10839 10836 10833 10829 10826 10823 10820 10818
10906 10908 10909 10909 10910 10910 10911 10912 10913 10912 10912 10911 10910 10909 10909 10909 10909 10908 10909 10909 10909 10909 10909 10908 10907 10904 10903 10902 10901 10901 10901 10899 10896 10894 10892 10890 10887 10883 10879 10875 10871 10869 10866 10863 10860 10858 10857 10855 10854 10851 10849 10847 10844 10841 10837 10834 10831 10827 10824 10821 10817 10814 10812
10903 10903 10904 10904 10904 10905 10906 10907 10908 10907 10906 10906 10904 10904 10904 10903 10902 10903 10903 10903 10903 10903 10903 10902 10901 10899 10897 10896 10896 10897 10896 10894 10893 10893 10891 10887 10881 10876 10873 10868 10864 10862 10860 10858 10855 10853 10851 10850 10848 10846 10844 10841 10838 10835 10832 10829 10826 10822 10819 10815 10812 10808 10806
10898 10899 10899 10899 10898 10899 10901 10902 10902 10901 10900 10899 10898 10898 10898 10896 10896 10896 10896 10896 10896 10896 10896 10896 10894 10893 10892 10890 10891 10892 10890 10889 10890 10891 10891 10889 10882 10873 10866 10862 10859 10856 10854 10853 10850 10847 10845 10845 10843 10841 10839 10836 10833 10830 10827 10823 10820 10817 10813 10810 10806 10802 10800
10893 10894 10894 10894 10893 10894 10895 10897 10897 10895 10894 10893 10892 10891 10890 10889 10889 10889 10889 10889 10888 10888 10889 10889 10887 10886 10886 10885 10885 10885 10884 10884 10886 10888 10891 10892 10888 10877 10865 10858 10854 10850 10848 10848 10846 10841 10839 10840 10838 10836 10834 10831 10828 10825 10821 10818 10814 10811 10807 10803 10800 10796 10793
10888 10888 10888 10888 10888 10889 10890 10891 10891 10890 10888 10886 10885 10883 10882 10881 10881 10880 10880 10881 10881 10881 10881 10881 10880 10880 10879 10878 10879 10878 10877 10877 10879 10883 10886 10888 10887 10880 10869 10856 10846 10842 10842 10843 10841 10837 10835 10835 10834 10832 10829 10827 10824 10819 10815 10812 10808 10804 10800 10797 10793 10790 10787
10882 10882 10881 10881 10882 10883 10884 10885 10885 10884 10882 10880 10878 10876 10875 10874 10873 10870 10869 10871 10871 10872 10872 10873 10872 10872 10871 10872 10872 10871 10871 10871 10873 10876 10879 10881 10879 10873 10862 10850 10840 10836 10837 10837 10836 10833 10830 10828 10827 10826 10823 10820 10817 10813 10808 10805 10801 10796 10793 10790 10786 10783 10780
10874 10874 10874 10874 10875 10876 10878 10879 10879 10879 10877 10873 10871 10870 10870 10868 10866 10862 10861 10861 10861 10861 10862 10863 10864 10864 10864 10865 10866 10866 10866 10866 10867 10868 10869 10870 10868 10861 10855 10849 10842 10837 10835 10833 10830 10829 10825 10821 10819 10818 10816 10813 10809 10806 10802 10797 10792 10788 10785 10782 10779 10776 10773
10867 10867 10867 10866 10867 10870 10872 10873 10873 10873 10870 10867 10865 10865 10865 10862 10859 10857 10857 10856 10854 10854 10854 10855 10855 10857 10858 10859 10859 10861 10861 10861 10860 10860 10859 10858 10857 10853 10850 10846 10841 10836 10833 10829 10825 10823 10820 10816 10814 10813 10811 10807 10802 10798 10794 10788 10784 10780 10777 10775 10772 10769 10766
10858 10859 10859 10858 10860 10864 10866 10866 10866 10865 10863 10861 10861 10860 10858 10855 10854 10853 10853 10851 10850 10849 10848 10848 10848 10850 10851 10851 10852 10853 10854 10854 10853 10851 10849 10847 10846 10845 10843 10840 10836 10832 10828 10824 10819 10815 10814 10813 10810 10807 10803 10798 10792 10788 10784 10779 10776 10773 10770 10768 10765 10761 10757
10850 10851 10850 10852 10855 10858 10859 10858 10858 10858 10857 10856 10855 10852 10850 10849 10849 10848 10847 10846 10845 10844 10843 10843 10843 10843 10843 10843 10844 10845 10846 10846 10845 10843 10840 10838 10836 10836 10834 10833 10830 10825 10821 10818 10814 10809 10807 10806 10802 10797 10794 10790 10785 10781 10777 10773 10770 10766 10764 10761 10758 10753 10749
10842 10843 10843 10846 10849 10850 10850 10850 10851 10851 10851 10849 10847 10844 10843 10843 10843 10842 10841 10840 10839 10838 10838 10837 10837 10836 10836 10835 10835 10837 10838 10838 10837 10835 10832 10830 10827 10826 10825 10824 10822 10817 10814 10813 10810 10804 10800 10797 10793 10790 10787 10785 10780 10775 10771 10768 10763 10760 10758 10754 10750 10745 10741
10834 10836 10837 10840 10842 10843 10842 10842 10843 10843 10843 10841 10839 10836 10835 10836 10836 10835 10834 10833 10832 10831 10830 10830 10830 10829 10828 10827 10827 10828 10829 10829 10828 10826 10823 10821 10819 10817 10815 10814 10812 10809 10808 10808 10803 10796 10791 10788 10786 10783 10779 10776 10772 10768 10765 10761 10757 10753 10750 10746 10741 10737 10733
10827 10828 10830 10833 10835 10834 10834 10834 10834 10834 10834 10833 10831 10828 10827 10827 10827 10827 10827 10826 10825 10823 10823 10823 10823 10822 10820 10818 10818 10820 10821 10821 10819 10817 10814 10812 10810 10808 10806 10805 10802 10800 10798 10796 10791 10785 10782 10780 10778 10775 10771 10767 10764 10760 10757 10753 10749 10745 10741 10737 10733 10729 10724
10819 10821 10822 10824 10825 10825 10826 10826 10825 10826 10825 10824 10822 10821 10820 10820 10820 10819 10819 10818 10818 10817 10816 10816 10816 10814 10812 10810 10810 10811 10812 10811 10810 10807 10805 10803 10801 10799 10797 10796 10794 10790 10786 10783 10780 10777 10775 10772 10769 10767 10763 10759 10756 10753 10749 10745 10741 10736 10731 10728 10726 10721 10717
10811 10812 10813 10815 10816 10817 10818 10818 10817 10817 10816 10815 10814 10813 10813 10813 10812 10812 10812 10811 10811 10811 10810 10809 10808 10807 10805 10803 10802 10801 10801 10800 10799 10798 10795 10793 10791 10789 10787 10787 10786 10783 10778 10775 10773 10770 10767 10764 10761 10758 10755 10751 10748 10745 10741 10738 10733 10727 10722 10719 10717 10713 10709
10803 10804 10804 10806 10807 10808 10808 10809 10809 10809 10809 10807 10807 10806 10806 10805 10804 10804 10805 10804 10804 10804 10804 10802 10801 10799 10797 10795 10794 10792 10791 10790 10789 10787 10784 10782 10780 10779 10778 10777 10777 10775 10771 10767 10765 10762 10758 10755 10752 10749 10746 10743 10740 10737 10734 10731 10727 10722 10716 10711 10708 10705 10702
10794 10794 10795 10796 10798 10799 10800 10801 10802 10802 10802 10801 10800 10799 10798 10797 10796 10797 10797 10797 10797 10797 10796 10795 10793 10791 10789 10787 10785 10784 10783 10782 10780 10776 10774 10772 10770 10768 10767 10766 10766 10764 10761 10758 10755 10752 10748 10745 10742 10740 10737 10735 10732 10729 10727 10724 10720 10716 10711 10705 10700 10697 10694
10784 10784 10785 10787 10789 10792 10794 10796 10796 10796 10795 10793 10792 10791 10790 10789 10789 10790 10790 10790 10790 10790 10788 10787 10785 10782 10780 10777 10776 10775 10775 10773 10770 10767 10765 10763 10761 10759 10756 10754 10753 10751 10748 10746 10743 10741 10738 10735 10732 10730 10727 10725 10722 10718 10716 10713 10709 10706 10702 10698 10693 10689 10685
10776 10777 10778 10780 10782 10784 10788 10789 10790 10790 10788 10785 10783 10783 10782 10781 10781 10782 10784 10784 10782 10781 10780 10778 10775 10772 10770 10768 10767 10766 10765 10763 10760 10758 10756 10754 10751 10748 10746 10743 10741 10738 10736 10733 10731 10729 10727 10725 10723 10720 10718 10715 10712 10709 10706 10703 10698 10695 10692 10689 10685 10681 10677
10770 10771 10773 10773 10775 10777 10780 10781 10781 10781 10780 10778 10776 10774 10774 10775 10775 10776 10776 10775 10774 10773 10772 10768 10765 10763 10762 10760 10759 10757 10755 10753 10750 10748 10746 10743 10741 10739 10736 10734 10731 10729 10727 10724 10721 10719 10717 10716 10714 10712 10709 10706 10703 10700 10697 10694 10690 10687 10683 10680 10676 10672 10668
10763 10765 10765 10765 10766 10769 10770 10770 10770 10770 10770 10770 10768 10767 10767 10769 10769 10769 10768 10766 10765 10765 10763 10759 10756 10756 10754 10752 10750 10749 10746 10743 10741 10738 10737 10735 10733 10730 10728 10725 10723 10721 10718 10715 10712 10710 10708 10706 10703 10701 10699 10696 10694 10691 10688 10685 10682 10678 10674 10670 10666 10663 10659
10756 10756 10756 10756 10757 10759 10759 10760 10760 10761 10761 10760 10759 10759 10760 10761 10762 10762 10760 10758 10757 10756 10753 10750 10749 10747 10745 10743 10742 10740 10737 10735 10732 10730 10728 10726 10724 10721 10719 10716 10714 10712 10709 10706 10703 10701 10699 10696 10694 10691 10689 10686 10684 10681 10679 10676 10673 10669 10664 10660 10656 10652 10648
10747 10747 10747 10747 10748 10748 10749 10750 10750 10751 10751 10751 10751 10751 10752 10753 10754 10754 10753 10752 10750 10746 10744 10742 10741 10739 10736 10735 10733 10730 10728 10725 10723 10721 10718 10716 10714 10711 10709 10707 10704 10702 10700 10697 10694 10691 10689 10687 10684 10682 10679 10677 10674 10671 10669 10666 10662 10658 10654 10649 10645 10641 10637
10736 10737 10737 10738 10738 10739 10740 10740 10741 10742 10743 10743 10744 10745 10746 10746 10746 10745 10745 10744 10741 10738 10736 10735 10732 10730 10728 10726 10723 10721 10719 10716 10714 10711 10709 10706 10704 10701 10699 10697 10694 10692 10690 10687 10684 10681 10679 10677 10674 10672 10669 10666 10663 10660 10658 10655 10651 10647 10643 10638 10634 10629 10625
10726 10727 10728 10729 10730 10730 10730 10731 10732 10733 10735 10736 10737 10738 10738 10739 10738 10736 10736 10735 10733 10730 10728 10726 10723 10720 10719 10717 10714 10712 10709 10706 10704 10701 10698 10696 10693 10691 10688 10686 10684 10681 10679 10676 10673 10670 10668 10665 10663 10660 10657 10654 10652 10649 10646 10643 10640 10636 10631 10627 10622 10617 10613
10717 10718 10719 10720 10721 10721 10721 10722 10724 10726 10728 10729 10729 10729 10730 10730 10729 10727 10727 10726 10724 10721 10719 10716 10713 10711 10709 10706 10704 10701 10698 10695 10693 10690 10687 10685 10682 10680 10678 10675 10672 10670 10667 10664 10661 10659 10656 10654 10651 10648 10645 10643 10640 10638 10635 10632 10628 10624 10619 10614 10609 10605 10600